Regional Weather Roundup
Issued by NWS

Home | Current Version | Previous Version | Graphics & Text | Print | Product List | Glossary On
Versions: 1 2 3 4 5 6 7 8 9 10 11 12 13 14 15 16 17 18 19 20 21 22 23 24 25 26 27 28 29 30 31 32 33 34 35 36 37 38 39 40 41 42 43 44 45 46 47 48 49 50
339
ASUS43 KTOP 090908
RWRKS

WEATHER ROUNDUP FOR KANSAS
NATIONAL WEATHER SERVICE GOODLAND KS
300 AM CST TUE FEB 09 2016

NOTE:  "FAIR" INDICATES FEW OR NO CLOUDS BELOW 12,000 FEET WITH NO
SIGNIFICANT WEATHER AND/OR OBSTRUCTIONS TO VISIBILITY.

KSZ001>006-013>018-027>032-041>047-091000-
NORTHWEST KANSAS

CITY           SKY/WX    TMP DP  RH WIND       PRES   REMARKS
GOODLAND       CLOUDY    25  21  85 NW5       30.22S
HAYS           CLOUDY    36  18  48 NW10      30.20S WCI  28
HILL CITY      CLOUDY    35  24  64 W8        30.21F
RUSSELL        CLOUDY    34  21  59 NW12      30.18R WCI  25
$$

KSZ061>065-074>080-084>089-091000-
SOUTHWEST KANSAS

CITY           SKY/WX    TMP DP  RH WIND       PRES   REMARKS
DODGE CITY     CLEAR     28  20  71 NW12      30.23S WCI  18
ELKHART          N/A     37  20  50 NW15        N/A  WCI  28
GARDEN CITY    CLOUDY    28  23  81 NW9       30.23S
GREAT BEND     CLOUDY    34  19  55 NW14G20   30.19S WCI  24
LIBERAL        CLOUDY    30  21  69 W14       30.25F WCI  20
PRATT          MOCLDY    28  19  67 NW9       30.19F
$$

KSZ066>073-081>083-090>101-091000-
SOUTHEAST KANSAS

CITY           SKY/WX    TMP DP  RH WIND       PRES   REMARKS
CHANUTE        PTCLDY    31  19  61 W10       30.09F WCI  22
COFFEYVILLE    CLEAR     30  18  60 W10       30.13F WCI  21
HUTCHINSON     CLEAR     31  17  56 NW12      30.17S WCI  22
MEDICINE LODGE   N/A     27  18  69 NW5       30.20F
NEWTON         CLEAR     28  16  59 NW10      30.15F WCI  19
PARSONS        CLEAR     31  18  58 W10       30.11F WCI  22
WICHITA INTL   PTCLDY    31  18  58 NW13      30.16F WCI  21
WICHITA JABRA  CLEAR     30  18  60 NW13      30.15F WCI  20
WICHITA MCCONL CLEAR     30  18  61 NW8       30.15F
WINFIELD       CLEAR     26  18  71 W10       30.18S WCI  16
$$

KSZ007>012-019>026-033>040-048>060-102>105-091000-
NORTHEAST KANSAS

CITY           SKY/WX    TMP DP  RH WIND       PRES   REMARKS
CONCORDIA      CLEAR     29  17  61 NW13      30.15F WCI  19
EMPORIA        CLOUDY    30  18  60 NW13G22   30.10F WCI  20
LAWRENCE       CLEAR     28  15  58 NW14      30.07S WCI  17
MANHATTAN      CLEAR     31  19  61 NW5       30.14S
MARYSVILLE     PTCLDY    28  21  74 NW13G21   30.12R WCI  18
OLATHE IND     CLEAR     28  17  63 NW14      30.04F WCI  17
OLATHE EXE     CLEAR     27  15  61 NW14G24   30.02F WCI  16
SALINA         CLEAR     30  18  60 NW12      30.17F WCI  20
TOPEKA BILLARD PTCLDY    31  19  61 NW13G23   30.09S WCI  21
TOPEKA FORBES  MOCLDY    33  20  58 NW20G26   30.07F WCI  21
$$




USA.gov is the U.S. government's official web portal to all federal, state and local government web resources and services.